TIMESTAMP,CO2_1_1_1,H2O_1_1_1,TAU_1_1_1,TAU_SSITC_TEST_1_1_1,H_1_1_1,H_SSITC_TEST_1_1_1,LE_1_1_1,LE_SSITC_TEST_1_1_1,FC_1_1_1,FC_SSITC_TEST_1_1_1,WD_0_0_1,WS_0_0_1,WS_MAX_0_0_1,U_SIGMA_0_0_1,V_SIGMA_0_0_1,W_SIGMA_0_0_1,USTAR_0_0_1,MO_LENGTH_0_0_1,ZL_0_0_1,FETCH_MAX_0_0_1,FETCH_70_0_0_1,FETCH_80_0_0_1,FETCH_90_0_0_1,PA_0_0_1,RH_0_0_1,TA_0_0_1,VPD_0_0_1,T_SONIC_0_0_1,T_SONIC_SIGMA_0_0_1
[yyyymmddHHMMSS],[mmolCO2 mol-1],[mmolH2O mol-1],[kg m-1 s-2],[#],[W m-2],[#],[W m-2],[#],[umolCO2 m-2 s-1],[#],[Decimal degrees],[m s-1],[m s-1],[m s-1],[m s-1],[m s-1],[m s-1],[m],[#],[m],[m],[m],[m],[kPa],[%],[deg C],[hPa],[deg C],[deg C]
20211208003000,425.90212012735810,1.6843600111043515,0.34974928475995937,0,-25.736178801578852,0,-0.87671159139100596,1,1.2758265011721124,0,148.36483927235244,2.2707998878824518,6.5641555464151260,1.0301166931069639,0.85783284847008534,0.65782205144829398,0.52602780764916535,469.83971206777215,4.0439323267036524E-002,104.70685616561816,191.43752760972669,229.10182672205872,286.80830084427043,93.626263372454446,84.462068965517247,-15.257241379310358,0.29018874637779024,-15.428306182201652,9.0619203950024027E-002
20211208010000,426.11843660879026,1.7272843529334807,0.35018802372603114,0,-16.159162344627312,0,-0.23775083831165786,2,1.4716853369858123,0,154.16106605991465,2.5097966080685534,6.3060364518220871,1.0301216230400079,0.81770860834663284,0.65425612284782408,0.52653192792605297,750.53313667838609,2.5315337953081964E-002,105.24377857092820,192.41919300925161,230.27662948444862,288.27901449561540,93.639427102360344,85.186666666666667,-15.054333333333318,0.28133271469784032,-15.222903458999781,8.1360883697163391E-002
20211208013000,426.40611110539908,1.7499681501048463,0.20419018694698310,0,-12.910111937669248,0,-0.28061811573927981,0,1.0934017333193531,0,154.54365271973006,2.1863642518935165,5.2985992444334515,0.84936062064880780,0.72808653152159897,0.55338799037049757,0.40216310413681483,418.58003233289622,4.5391558441300231E-002,96.995792424373917,177.33924377308966,212.22978172153864,265.68650261331243,93.635043592985980,85.469999999999999,-14.937000000000012,0.27863582304772422,-15.102175182985377,7.2551608625149075E-002
20211208020000,425.81703791886230,1.7702719720713842,0.28275866410434058,0,-15.058280326365001,0,-7.1742025659554107E-002,2,1.9151673343973317,0,167.14381194152551,2.5852348693328584,6.1888275003287365,0.97444388667039006,0.81568087609626183,0.66847986256593761,0.47344937832874512,585.49661421493067,3.2451084325186660E-002,95.017385699155113,173.72208529892754,207.90096686313146,260.26734008644439,93.627641847439250,85.093333333333334,-14.744333333333316,0.29043273295999344,-14.910958945380287,6.6885100989170956E-002
20211208023000,425.86196661278490,1.7789744706209398,0.15804538259667078,1,-3.2830106787013946,1,0.26523794822000279,1,0.57083960232708397,1,176.33500673401113,2.4257585541140831,5.3965655732393225,0.87290088697995760,0.85364493237027350,0.65216506766644511,0.35403003303840652,1122.8163143314516,1.6921734888856687E-002,76.807027550211288,140.42774270681213,168.05614227411954,210.38634785988955,93.621847994357637,84.926666666666677,-14.661666666666690,0.29568454768590868,-14.834940245734288,3.7473778949612339E-002
20211208030000,426.54266320647173,1.7820090129517467,0.11646611486734432,0,-4.1539204208831144,0,0.28118586709649046,1,0.26590146440382151,1,175.76944641490221,1.8839748641335683,4.9007815717919696,0.80628608285517156,0.70698471513889816,0.50006968611092217,0.30394581936976495,561.42970053379588,3.3842171124782300E-002,84.075104588257730,153.71610556664092,183.95891872210399,230.29473688066358,93.592925362196183,85.213333333333338,-14.685666666666691,0.28948903997606296,-14.860370335896789,4.2009996242678212E-002
20211208033000,427.23618547822889,1.7703337718486896,0.15686173762613115,0,-9.2286758585163557,0,0.25230649081089340,1,0.37493068549555447,0,176.98022322838264,2.0392918025207218,4.7154055598311890,0.68445083547402186,0.60796711145163918,0.50011510241092150,0.35270634688986330,394.78954749465248,4.8126907413265189E-002,94.695544161086602,173.13365632124442,207.19676766370267,259.38576625207645,93.563125769314240,85.543333333333337,-14.816333333333318,0.28000020808646159,-15.000811984592019,6.8630444999800699E-002
20211208040000,427.78274584408820,1.7495038383407813,9.5656855082020972E-002,0,-14.721631021816693,0,-0.58899160130192252,1,0.69511302453819168,0,172.67438309263443,1.8624885154274344,3.9224447963068365,0.56776235143975429,0.54005357889509642,0.39662211090228822,0.27533187764628952,117.71523870286056,0.16140646027962638,93.505802040806515,170.95842827658498,204.59357525523987,256.12687826272969,93.549787058376737,86.076666666666668,-15.036999999999978,0.26480852497406770,-15.221706560770599,8.4220825665033194E-002
20211208043000,428.43346508207532,1.7346235960774514,9.6641452828795438E-002,0,-14.660563631480636,0,-0.59351269885936375,0,0.57260553747768839,0,165.81506849236897,1.8255592672164602,4.2379758437323227,0.59298334986380263,0.53412815127506297,0.39269501615271435,0.27671279512192021,119.96551714852561,0.15837884461813045,94.631120224836664,173.01586881881892,207.05580610664722,259.20929910974985,93.520089181640628,86.316666666666663,-15.177999999999997,0.25723134436188988,-15.345972576565202,7.1833630764275555E-002
20211208050000,428.86108234474625,1.7251939532558642,8.3633540946504131E-002,0,-18.033785443389899,0,-0.29370575714158853,1,0.54806546335089501,0,164.53165289742898,1.6125265611739785,3.6553672523748091,0.55950862103220222,0.52844208605217247,0.37404788433188124,0.25738887925673887,78.480870724025905,0.24209721203033741,92.850652651769394,169.76060624424443,203.16008821054402,254.33232258653126,93.508875286024306,86.456666666666663,-15.264999999999986,0.25277511709492645,-15.426416667514331,0.10273252699579437
20211208053000,428.94461512620023,1.7050676154459974,7.4216996216051781E-002,0,-27.781935818558143,0,-1.0058264639319130,0,0.67120538617986147,0,180.90238201262261,1.9915361741530937,3.6601486307454962,0.56293789905915825,0.50509462638307301,0.33859112136560376,0.24247035722838126,42.567336845092377,0.44635162564064718,95.860870638135765,175.26424478310770,209.74653789266699,262.57777601199751,93.443566517578134,86.593333333333334,-15.434333333333313,0.24674243427007411,-15.602335854424382,0.16557338381794853
20211208060000,428.72406660290147,1.7104324835605402,6.8493875966755935E-002,0,-27.557600856038132,0,-1.1657898744206534,0,0.48651203158464368,0,198.58150659775302,2.3468985755653420,4.4970192127964141,0.55668404344285050,0.50018010199409724,0.36127171184773038,0.23304717915762341,38.076414657708035,0.49899656180348156,88.174461226558890,161.21103692419783,192.92843732492096,241.52350980959335,93.353962081136814,86.763333333333335,-15.431666666666672,0.24366748093513452,-15.593246638688072,0.15085071121327370
20211208063000,428.79863184809125,1.6981706150698874,6.2664821129465351E-002,0,-26.029081118741065,0,-0.53671051886282362,0,0.27905135699771361,0,196.96657235833487,2.3994052184960362,4.3864071795701030,0.54628991736986432,0.46337785186464386,0.34659567094534138,0.22304457290934251,35.299335147633549,0.53825376371922262,88.005481018149112,160.90208720975147,192.55870342358673,241.06064683934369,93.199207967334928,86.826666666666668,-15.547333333333313,0.24018870201863679,-15.686408383788773,0.16924026402506201
20211208070000,428.64513036075050,1.7067895645235078,4.7263472395296276E-002,0,-21.313324250742763,0,-1.2975530165214852,1,0.35296030654203464,0,209.13406749564643,2.5254427445790846,4.4485541911320201,0.52855986217735640,0.46584524523943754,0.31995554823705091,0.19385839411458958,28.273962160708177,0.67199637221004571,231.07320693199947,2265.0000000000000,4224.0000000000000,-9999.,93.058965016276019,87.013333333333335,-15.530333333333317,0.23711911406118277,-15.652644890679255,0.21937542240188951
20211208073000,427.80754352600985,1.7668898026612723,8.1442053326567024E-002,0,-24.006833225633088,0,-0.41549514759157685,1,0.69286768805583243,0,217.00455785182780,2.5432657003174284,4.3620347534268644,0.55412302014993930,0.44243495558686741,0.34390759733718840,0.25466938841679615,56.911063496201372,0.33385424261608093,98.465225553812203,180.02583618536249,215.44494667375281,269.71150760813208,93.062702566406259,87.170000000000002,-15.133333333333326,0.24208128409798294,-15.238536179436551,0.18246249075432813
20211208080000,427.08014615917887,1.7722073320050806,6.9456227420236633E-002,0,-25.520876244149463,0,-3.2228731302401822E-002,2,0.56209056386497835,0,224.57027763884406,2.9721639009094920,5.5883176345106618,0.55804318534659669,0.49242850795566689,0.33519360718560492,0.23526253116647292,42.192311811865032,0.45031900799180552,94.332323192754586,172.46957254774722,206.40202899618887,258.39084774747016,93.023328983289915,86.946666666666673,-15.071000000000026,0.24756621520525757,-15.151273580763075,0.22101037068431179
20211208083000,426.85262261621961,1.7652187452022714,0.10028378839420625,0,-23.248995192860388,0,-0.26443063963259084,0,0.50091055582830413,0,224.67731794360253,3.1828424190582036,5.5290824214637873,0.62891734867111437,0.53707254622123246,0.38067257397871956,0.28282762814389301,80.400197155423029,0.23631782846590249,98.725898299008833,180.50242910088991,216.01530667011005,270.42553064219203,92.911140659939221,86.943333333333328,-15.132999999999981,0.24636489927940092,-15.254943741692387,0.18517929674494468
20211208090000,426.71785968292420,1.7464697980400772,9.8921099191800435E-002,0,-27.794068290592385,0,-1.1645258317901330,1,0.56806681957194349,0,227.34961365824941,2.6173326798481611,5.0443626299007489,0.60717914687288710,0.47438567547776184,0.33376549898313151,0.28096328431796597,65.883137151966793,0.28838942438600618,109.09915902599002,199.46805809163433,238.71232068279841,298.83949886041648,92.816336711154520,86.963333333333338,-15.277333333333331,0.24307056238430080,-15.435966840108222,0.20171588079180616
20211208093000,426.83710856771762,1.6970353225896180,7.4791034943775661E-002,0,-15.807359511815239,0,5.2289272553832651E-002,1,0.30743149046477430,0,228.88780411742141,2.4787703706651301,4.3807921491642521,0.54325193865077392,0.42192507154002906,0.29462071764134157,0.24429323780261111,76.075497472422214,0.24975189951124019,107.78874858501766,197.07220987156245,235.84510227154593,295.25008164604230,92.695534436197889,86.893333333333331,-15.629999999999995,0.23734056439035611,-15.825627237955700,0.19953684153224449
20211208100000,427.23415783589866,1.6488619739267769,8.2072204215086139E-002,0,-22.279251460712246,0,1.1312302035330339,1,0.43138146382550846,0,229.55132511421647,2.2852848404770181,4.5419928112313306,0.54741448538820137,0.45442118014450811,0.28569318961170531,0.25587726782938947,61.977792339302802,0.30656141954819643,114.64638189855575,209.61015069867807,250.84981520683419,314.03420171701390,92.598627676227281,86.663333333333327,-15.957333333333338,0.23502671989956470,-16.180617309237903,0.25885780519784846
20211208103000,426.44713949164640,1.6977162835697108,0.10210813988450602,0,-9.3010745589880894,2,4.5586246812341171,1,-0.69209493632342112,2,263.50837746491572,2.1710280611706607,4.2640823106961188,0.59455069094766344,0.65061060930894121,0.31552977782821345,0.28556024914121331,206.33228344338281,9.2084475017277484E-002,115.60611859104736,211.36485546487143,252.94974865411706,316.66306920584412,92.587199807074654,87.453333333333333,-15.716666666666640,0.22557165999376480,-15.996507681952608,0.26242312188288175
20211208110000,425.65583772986707,1.7656210271949071,6.5635744556018560E-002,0,-14.748588478640102,0,-1.0100388452589706,1,0.78411818131364053,0,278.29500152971679,2.2886617680680224,4.8422441932771090,0.77595692074436640,0.49678439087188958,0.37720417965782160,0.22910137823802612,67.210531061724069,0.28269379366383801,84.026420709822588,153.62709590993481,183.85239689641034,230.16138419523480,92.614742691189235,87.909999999999997,-15.302666666666653,0.22494798996571264,-15.663276431613440,0.20515822701546901
20211208113000,425.29221739025871,1.8463288447449322,2.8987238308017797E-002,0,-10.788782175103417,0,0.19723572978650442,0,0.11837179334963946,1,252.37756026524266,1.5787513990331552,2.9902344254536311,0.39854083752417718,0.32414386902036957,0.19543306202133645,0.15245884518532998,27.069864206276510,0.70188752537571264,155.40330833991331,1434.0000000000000,2629.0000000000000,7085.0000000000000,92.581662802734385,87.433333333333337,-14.699333333333357,0.24575002468407434,-15.063945348103800,0.18411107725265699
20211208120000,425.37550656215524,1.8280763077156390,1.2565848066277712E-002,0,-3.8867958806931702,1,9.0917622032367154E-002,2,5.7721499492239557E-002,2,246.57931992087248,1.5466294603433406,3.0761757787636457,0.40898118870046685,0.29268618674358915,0.14458674503161786,0.10040100499310961,21.449206324489868,0.88581366193986111,319.43157612369566,3189.0000000000000,5980.0000000000000,-9999.,92.518843529730887,86.959999999999994,-14.762333333333345,0.25368749216586622,-15.146663884480745,0.34802387603854068
20211208123000,427.28862284470176,1.7061000880000263,7.5559771838379100E-002,0,-32.403529033974834,0,-1.1993616727998082,1,0.84173463255074599,0,234.22488828061626,1.8056372186183192,3.4119863621057065,0.55723901252764096,0.42507340149021744,0.27119112980147270,0.24582988003214190,37.768219716243259,0.50306845656875188,115.75566409046034,211.63827233288913,253.27695881349177,317.07269749721127,92.529520911675363,86.239999999999995,-15.496333333333325,0.25194804004529375,-15.905198040432424,0.33868568292409668
20211208130000,426.15385415687922,1.6492804121676021,5.7274847165680896E-002,0,-26.519392829423079,0,0.86775645834637805,1,0.38357250580912416,1,219.27522434721436,1.6386394418060306,3.1426869820615102,0.46568844752206406,0.35490137029000590,0.34309156540919677,0.21388889781331549,30.390935323649661,0.62518641817563780,85.798058545845734,156.86621490909243,187.72879505586624,235.01417470073434,92.509431385171283,86.063333333333333,-15.882333333333349,0.24713698375529958,-16.313513354850272,0.46204746553061965
20211208133000,426.02925984380164,1.6046061514646264,7.2452216485431598E-002,0,-28.666381190160056,0,-0.11921954075659368,2,0.41046805146309212,0,213.57820978730521,2.0847478110898319,4.4319058296536502,0.56751679172780523,0.49847465184134282,0.39869174652142397,0.24044221525235032,39.936935769258476,0.47575007030522565,83.551390125800054,152.75858849910742,182.81301534553779,228.86020183104401,92.502286615885424,85.683333333333337,-16.160000000000025,0.24807497740661319,-16.723523484971849,0.54803685126467883
20211208140000,426.20119639062574,1.5514856097267935,8.1436269808385017E-002,0,-32.360575532023653,0,1.0956726256610978,1,0.41782026071151696,1,217.55118583716126,2.3184405182899761,4.2980930946590972,0.54610289549967472,0.51814059665736190,0.36661105427617091,0.25468128754749547,42.056193328020868,0.45177650415975312,93.559541427344499,171.05668101447469,204.71115868839445,256.27407876808144,92.545197618439886,85.306666666666672,-16.504999999999995,0.24737481189467361,-17.088545267323752,0.28096832973009517
20211208143000,427.16740962326793,1.5477243234025095,1.9538442377660625E-002,1,-44.408684975282021,1,0.46455173702002361,1,0.51420666473042342,1,218.65735170089519,2.0538620464164574,5.7091541180876915,0.63471683455440242,0.47354368098185773,0.37678357857090217,0.12465646253972426,3.5974723941304938,5.2814859763760005,313.75191643738998,2269.0000000000000,3886.0000000000000,9287.0000000000000,92.684419294053839,85.156666666666666,-16.495000000000005,0.25010916568506192,-17.085272067317192,0.31405285768755919
20211208150000,426.86663062792883,1.6228914894106152,1.6776379490691572E-002,2,-44.803665479431707,2,-1.9995315576928505,2,1.2975840579034046,2,213.12033480276904,2.5306845524471777,12.834150190425298,0.72635136966742531,0.59084615308524369,0.45931106586475234,0.11549822331566621,2.8406700597558565,6.6885627687549780,566.28102070937985,4152.0000000000000,7137.0000000000000,-9999.,92.888337710503464,85.793333333333337,-15.989333333333320,0.24969267491152836,-16.462497133255056,0.38587011221441231
20211208153000,426.91362003954464,1.8182076591004801,0.15075422068312685,0,-29.324356548373284,1,-3.8334535637704699,1,1.0125197377831339,0,213.68175068733012,2.7522680687001304,5.6828960760601497,0.86584633272509992,0.61654614167243404,0.45642362913180146,0.34658438109773160,117.51010356367689,0.16168822444875300,100.46333563694067,183.67901868184720,219.81687308621642,275.18464068487566,93.144117151909711,87.113333333333330,-14.767666666666685,0.25059439660652916,-15.216183837890640,0.47699467645521448
20211208160000,427.70011858538095,1.9694182320623950,0.19412294646407302,0,5.7289416216482127,1,0.41474820546962937,0,1.1305440089614645,0,219.62247267964085,2.6684654744486997,5.5805892834615749,0.94000605577371132,0.63880809312766096,0.49410662606483324,0.39351896029025080,-882.09107117723033,-2.1539726022442082E-002,104.36884735812117,190.81953970724217,228.36225303909740,285.88244235420865,93.385236871961823,87.469999999999999,-13.811666666666667,0.26352668722626504,-14.267423068576306,0.23120572681461171
20211208163000,427.69456813990138,2.0928820084946236,0.22235530658321595,0,9.1295020524096664,1,1.5611808756608705,2,1.7238377416989983,0,222.81263165518021,2.0695688858692378,4.9242247525333562,0.96298644549267742,0.61908332440368730,0.44876608391221484,0.42153880401391647,-680.82854089700527,-2.7907173184847860E-002,119.09922222307748,217.75136297248565,260.59276700395401,326.23122122628916,93.466966190538201,88.043333333333337,-13.134333333333359,0.26572536696592663,-13.567637339274086,0.28358401010807904
20211208170000,426.91631990905859,2.2634409008308740,0.23042130621882562,0,23.930913838887843,0,3.3712782297816855,0,1.1709808890076194,0,220.57075965360229,2.3259082466945036,5.6503718401499166,1.0539232674914576,0.65101173862011308,0.51486486804600529,0.42980429398077730,-275.36824359894797,-6.8998515412227401E-002,108.37195123966760,198.13849032720918,237.12116764512677,296.84756407033973,93.489499913411464,88.696666666666673,-12.254000000000019,0.26974146484796990,-12.736131334940637,0.37215055639296929
20211208173000,426.64738076321868,2.4244634742549294,0.23742696213026102,0,46.304163783123016,0,8.7242606693472720,0,0.97991693529703172,0,217.45743863672220,2.0862273576681645,6.6271058286709463,0.95702503992638399,0.77132378865781914,0.53218401015214534,0.43689891459852875,-149.51670575188783,-0.12707610099121050,106.93262179071817,195.50693704394646,233.97187047314802,292.90501772021969,93.517450962239593,89.179999999999993,-11.461999999999989,0.27515954223510619,-11.838187516106416,0.32307542231944325
20211208180000,425.43843729386504,2.5959616302516673,0.32319001324783281,0,76.806235311449996,1,18.761295809363666,1,-1.8671184087909778,2,220.18436534306130,2.1871823682958085,7.7952641636052213,1.1626200589473141,0.87478986043125528,0.65644990369864875,0.51047719997429863,-143.79646169557972,-0.13213120667894748,102.39404698181917,187.20897478908594,224.04132898321157,280.47315817574071,93.527894447482623,89.780000000000001,-10.687666666666644,0.27645675143715748,-10.996351857503328,0.30834156602344204
20211208183000,423.97146389110418,2.7701817453082702,0.33082099008269572,0,83.194218279039191,0,9.0067415575368113,0,1.3538522688735817,0,232.63286672348602,2.0839915746129147,5.1111663557294520,0.93987547452502207,0.76133946326635538,0.60326627319465298,0.51727342942601551,-138.12304256533491,-0.13755851049264736,110.71941939201653,202.43041079627028,242.25750027480984,303.27764302330058,93.518434074218746,90.093333333333334,-9.9130000000000109,0.28494225919062444,-10.308139711167996,0.26481637401169622
20211208190000,422.43285214450975,2.7873951244311854,0.34663686860886672,0,73.876668340345532,0,6.8620621744188446,0,0.40839782248494777,2,232.03435938599091,2.0468925672524185,6.0896224380871615,1.0791148837166320,0.95152321215636626,0.62735775256004500,0.52979729232912220,-167.11152693828512,-0.11369652559644654,109.37812442985012,199.97809582134283,239.32270557980570,299.60362832056285,93.513479680380371,88.626666666666665,-9.6270000000000095,0.33458971371757346,-9.8932576891951385,0.23280980851949817
20211208193000,422.00119621731380,2.5230330997207049,0.29145432925316872,0,50.979978401687426,0,12.188933547337070,0,0.64386751870393955,1,227.66362086937983,2.3003128470684810,6.3799263945157358,1.0971212131322432,0.82042863198715577,0.60280203056108761,0.48664069058508869,-187.67250403129501,-0.10124019018167781,105.50714477311857,192.90071042319761,230.85288284767847,289.00041532566752,93.515061366536472,74.498000000000005,-8.6833333333333371,0.80788699715382906,-9.5964739481607921,0.20635132418189042
20211208200000,421.71282176936626,2.4962131329110031,0.31389787929018798,0,41.289462535260114,0,6.8575114627217992,0,0.83027657417425094,1,214.95225796196470,2.4171365468247572,5.5299960266993118,1.0684454506986467,0.90526847940685762,0.62844857145588451,0.50545110004075666,-259.63759990540751,-7.3178923264281354E-002,105.19192966150928,192.32439666647230,230.16318247346555,288.13699229997667,93.513406991102428,71.224000000000004,-8.2443333333333157,0.94335702406582078,-9.4200459230210640,0.16452819781529041
20211208203000,421.74242940857613,2.5825666883406422,0.23320423955019423,0,24.347360068422383,0,11.231694112823437,0,0.55349373291280979,1,211.81291875104284,2.2302634083311199,5.8113013154884525,0.87174371102837545,0.79238754348589902,0.57077417908919803,0.43578024634627022,-282.21459386020337,-6.7324654406113946E-002,100.90146628177420,184.48006123520511,220.77551643346303,276.38474839887050,93.529322930197623,72.698333333333338,-8.0683333333333280,0.90736185986548634,-9.2381967776150873,9.0777059488859779E-002
20211208210000,422.08960126392719,2.6089966319630400,0.16844898086978227,1,26.808187446981261,0,6.7021032805787861,1,-0.48003670861482728,2,223.14946034164535,1.8042319310294239,4.8385977050893212,0.66203119627749552,0.76208581946783660,0.51356694795236468,0.37049952856242624,-157.51055988779717,-0.12062683297891057,96.428936051328876,176.30284953359583,210.98948251564670,264.13379518679358,93.524179827272476,72.469333333333338,-7.8973333333333358,0.92720628761877522,-9.1944423185082087,0.11570920995096871
20211208213000,422.33364338378436,2.5981146591577007,9.7479346201172989E-002,0,3.0467124105359304,0,6.3452739067112756,0,0.44890591235926069,1,210.86389557287595,1.6653353828919255,4.1644763397593891,0.59793077892895496,0.48811789205796968,0.34051462466104920,0.28173665682623261,-609.61123437409458,-3.1167404615677477E-002,107.60215519847652,196.73105765005690,235.43683019389695,294.73897345215295,93.566796119574661,72.657333333333327,-7.9786666666666406,0.91507768544195356,-9.1568373362222815,5.4676999079585363E-002
20211208220000,421.97363495798930,2.6034057952786194,7.1736484895406766E-002,0,-10.304766418573248,0,2.4977757255716893,0,0.12556652727102069,0,210.15197435155955,1.5182691397597705,3.4142487504625416,0.50506788410803383,0.44697300245894700,0.28080179450097870,0.24151925407082969,113.60381800377652,0.16724790006061580,110.99320795402893,202.93098360801216,242.85655808238485,304.02759231159899,93.633745907986111,73.905000000000001,-8.1623333333333221,0.86094265349307109,-9.2681687494913376,0.10194752956653481
20211208223000,422.11959688711858,2.5612327858354402,1.3592079073201499E-002,0,-7.5026292394612213,0,0.13205495787266053,2,4.9005639203905361E-002,0,188.68999278846977,1.6591470829143036,2.8633765946871441,0.27729936414644851,0.30526812264790593,0.19776313267032314,0.10503014548628031,12.835549711119604,1.4802638319058554,353.43526050753445,3287.0000000000000,6040.0000000000000,-9999.,93.668372193631200,75.029666666666671,-8.5609999999999786,0.79863773714052710,-9.6398051681281345,0.22982343248972162